Location: Myrnam
(53.6612°N, 111.2289°W)
Time: 22:37:08
(UTC+00:00)

AO-91 - Visible Passes

Search period start: 01 December 2023 00:00
Search period end: 11 December 2023 00:00
Orbit: 445 x 755 km, 97.6° (Epoch: 01 December)

Date Brightness Start Highest point End Pass type
(mag) Time Alt. Az. Time Alt. Az. Time Alt. Az.
03 Dec ? 13:59:29 10° ENE 14:00:50 11° NE 14:02:12 10° NNE visible
04 Dec ? 14:09:36 10° ENE 14:11:51 13° NE 14:14:04 10° NNE visible
05 Dec ? 14:20:01 10° E 14:22:51 15° NE 14:25:39 10° NNE visible
06 Dec ? 14:30:32 10° E 14:33:50 18° NE 14:37:06 10° NNE visible
07 Dec ? 14:41:08 10° ESE 14:44:49 21° ENE 14:48:26 10° N visible
